Location: Unspecified
(41.1637°N, 24.2901°E)
Time: 14:06:17
(UTC+02:00)

ISS - Pass Details

Date: 01 July 2022
Orbit: 414 x 420 km, 51.6° (Epoch: 05 July)

Event Time Altitude Azimuth Distance (km) Brightness Sun altitude
Exits shadow 01:49:15 21° 89° (E) 992 -1.7 -22.9°
Drops below altitude 10° 01:50:45 10° 72° (ENE) 1,496 -0.5 -22.8°
Sets 01:52:59 0° 62° (ENE) 2,365 0.8 -22.7°
